TimeMDT,TemperatureF,Dew PointF,Humidity,Sea Level PressureIn,VisibilityMPH,Wind Direction,Wind SpeedMPH,Gust SpeedMPH,PrecipitationIn,Events,Conditions,WindDirDegrees,DateUTC
12:15 AM,44.6,44.6,100,30.06,0.2,NNW,8.1,-,N/A,Rain,Rain,330,2013-05-17 06:15:00
12:35 AM,44.6,44.6,100,30.07,10.0,NW,9.2,-,N/A,Rain,Light Rain,310,2013-05-17 06:35:00
12:55 AM,46.4,42.8,87,30.02,5.0,NNE,25.3,-,N/A,Rain,Rain,30,2013-05-17 06:55:00
1:15 AM,44.6,44.6,100,30.02,0.2,NW,11.5,-,N/A,Rain,Rain,320,2013-05-17 07:15:00
1:35 AM,44.6,44.6,100,30.03,0.2,NW,10.4,-,N/A,Rain,Rain,320,2013-05-17 07:35:00
1:55 AM,44.6,44.6,100,30.04,1.2,North,6.9,-,N/A,,Mostly Cloudy,350,2013-05-17 07:55:00
2:15 AM,44.6,44.6,100,30.04,0.2,NW,8.1,-,N/A,,Light Drizzle,320,2013-05-17 08:15:00
2:35 AM,44.6,44.6,100,30.04,0.2,NW,5.8,-,N/A,,Unknown,320,2013-05-17 08:35:00
2:55 AM,44.6,44.6,100,30.04,0.2,North,4.6,-,N/A,,Unknown,350,2013-05-17 08:55:00
3:15 AM,44.6,42.8,93,30.04,0.2,NNW,4.6,-,N/A,,Overcast,330,2013-05-17 09:15:00
3:35 AM,44.6,42.8,93,30.04,0.2,NW,5.8,-,N/A,Fog,Fog,320,2013-05-17 09:35:00
3:55 AM,44.6,42.8,93,30.04,0.2,NNW,4.6,-,N/A,,Overcast,330,2013-05-17 09:55:00
4:15 AM,44.6,42.8,93,30.04,0.5,ENE,4.6,-,N/A,Fog,Fog,60,2013-05-17 10:15:00
4:35 AM,44.6,44.6,100,30.04,10.0,Calm,Calm,-,N/A,,Mostly Cloudy,0,2013-05-17 10:35:00
4:55 AM,44.6,42.8,93,30.04,10.0,East,6.9,-,N/A,,Scattered Clouds,90,2013-05-17 10:55:00
5:15 AM,44.6,42.8,93,30.04,0.8,Calm,Calm,-,N/A,,Mostly Cloudy,0,2013-05-17 11:15:00
5:35 AM,42.8,42.8,100,30.03,5.0,NW,4.6,-,N/A,,Scattered Clouds,320,2013-05-17 11:35:00
6:15 AM,42.8,42.8,100,30.03,0.2,North,5.8,-,N/A,Fog,Fog,360,2013-05-17 12:15:00
6:35 AM,42.8,42.8,100,30.04,0.2,North,4.6,-,N/A,Fog,Fog,360,2013-05-17 12:35:00
6:55 AM,42.8,42.8,100,30.04,0.2,North,6.9,-,N/A,Fog,Fog,350,2013-05-17 12:55:00
7:15 AM,42.8,42.8,100,30.04,0.2,North,8.1,-,N/A,Fog,Fog,350,2013-05-17 13:15:00
7:35 AM,44.6,42.8,93,30.05,0.2,NNW,6.9,-,N/A,Fog,Fog,330,2013-05-17 13:35:00
7:55 AM,44.6,42.8,93,30.04,0.2,NNW,6.9,-,N/A,Fog,Fog,340,2013-05-17 13:55:00
8:15 AM,44.6,42.8,93,30.04,0.2,North,5.8,-,N/A,Fog,Fog,360,2013-05-17 14:15:00
8:35 AM,44.6,44.6,100,30.04,0.2,NNE,4.6,-,N/A,Fog,Fog,20,2013-05-17 14:35:00
8:55 AM,46.4,46.4,100,30.03,0.2,East,6.9,-,N/A,Fog,Fog,90,2013-05-17 14:55:00
9:15 AM,50.0,48.2,94,30.02,10.0,SE,12.7,18.4,N/A,,Scattered Clouds,130,2013-05-17 15:15:00
9:35 AM,50.0,46.4,87,30.02,10.0,SE,12.7,-,N/A,,Clear,130,2013-05-17 15:35:00
9:55 AM,48.2,46.4,93,30.03,10.0,ESE,8.1,-,N/A,,Clear,110,2013-05-17 15:55:00
10:15 AM,50.0,46.4,87,30.03,10.0,ESE,5.8,-,N/A,,Clear,120,2013-05-17 16:15:00
10:35 AM,53.6,44.6,72,30.03,10.0,East,9.2,-,N/A,,Clear,100,2013-05-17 16:35:00
10:55 AM,53.6,46.4,77,30.03,10.0,ESE,9.2,-,N/A,,Clear,120,2013-05-17 16:55:00
11:15 AM,53.6,44.6,72,30.03,10.0,ESE,10.4,-,N/A,,Clear,120,2013-05-17 17:15:00
11:35 AM,53.6,44.6,72,30.02,10.0,ESE,11.5,-,N/A,,Clear,110,2013-05-17 17:35:00
11:55 AM,55.4,44.6,67,30.01,10.0,East,13.8,-,N/A,,Clear,100,2013-05-17 17:55:00
12:15 PM,57.2,44.6,63,30.01,10.0,ESE,12.7,18.4,N/A,,Clear,120,2013-05-17 18:15:00
12:35 PM,59.0,44.6,59,30.00,10.0,SE,17.3,24.2,N/A,,Clear,130,2013-05-17 18:35:00
1:15 PM,59.0,44.6,59,29.99,10.0,ESE,16.1,23.0,N/A,,Clear,120,2013-05-17 19:15:00
1:35 PM,60.8,44.6,55,29.98,10.0,ESE,17.3,21.9,N/A,,Clear,120,2013-05-17 19:35:00
1:55 PM,62.6,44.6,52,29.97,10.0,ESE,19.6,23.0,N/A,,Clear,120,2013-05-17 19:55:00
2:15 PM,62.6,41.0,45,29.96,10.0,ESE,21.9,29.9,N/A,,Scattered Clouds,120,2013-05-17 20:15:00
2:35 PM,60.8,33.8,36,29.92,10.0,ESE,31.1,39.1,N/A,,Mostly Cloudy,120,2013-05-17 20:35:00
2:55 PM,62.6,33.8,34,29.91,10.0,SE,29.9,42.6,N/A,,Overcast,140,2013-05-17 20:55:00
3:15 PM,62.6,32.0,32,29.90,10.0,SE,39.1,49.5,N/A,,Overcast,140,2013-05-17 21:15:00
3:35 PM,64.4,32.0,30,29.95,10.0,SSW,26.5,39.1,N/A,,Mostly Cloudy,200,2013-05-17 21:35:00
3:55 PM,62.6,32.0,32,29.95,10.0,South,23.0,49.5,N/A,,Scattered Clouds,180,2013-05-17 21:55:00
4:15 PM,60.8,28.4,29,29.94,10.0,South,38.0,46.0,N/A,,Mostly Cloudy,190,2013-05-17 22:15:00
4:35 PM,60.8,28.4,29,29.96,10.0,South,26.5,44.9,N/A,,Mostly Cloudy,180,2013-05-17 22:35:00
4:55 PM,60.8,30.2,31,29.98,10.0,SSW,25.3,36.8,N/A,,Scattered Clouds,200,2013-05-17 22:55:00
5:15 PM,60.8,30.2,31,29.99,10.0,SW,16.1,25.3,N/A,,Mostly Cloudy,230,2013-05-17 23:15:00
5:35 PM,51.8,41.0,67,30.00,10.0,NNW,19.6,-,N/A,,Overcast,330,2013-05-17 23:35:00
5:55 PM,50.0,42.8,76,30.01,10.0,NNW,20.7,-,N/A,,Overcast,340,2013-05-17 23:55:00
6:15 PM,48.2,44.6,87,30.02,10.0,NNW,25.3,29.9,N/A,,Overcast,330,2013-05-18 00:15:00
6:35 PM,48.2,46.4,93,30.02,7.0,NNW,31.1,34.5,N/A,,Overcast,330,2013-05-18 00:35:00
6:55 PM,46.4,44.6,93,30.03,0.2,NNW,26.5,-,N/A,Fog,Fog,330,2013-05-18 00:55:00
7:15 PM,46.4,46.4,100,30.04,0.2,NNW,21.9,-,N/A,Fog,Fog,330,2013-05-18 01:15:00
7:35 PM,46.4,46.4,100,30.00,0.2,WNW,33.4,-,N/A,Fog,Fog,300,2013-05-18 01:35:00
7:55 PM,46.4,44.6,93,30.03,0.2,NW,23.0,26.5,N/A,,Unknown,320,2013-05-18 01:55:00
8:15 PM,44.6,44.6,100,30.04,10.0,NNW,16.1,-,N/A,,Scattered Clouds,330,2013-05-18 02:15:00
8:35 PM,44.6,42.8,93,30.06,10.0,NNW,11.5,-,N/A,,Clear,340,2013-05-18 02:35:00
8:55 PM,46.4,42.8,87,30.06,10.0,North,10.4,-,N/A,,Clear,350,2013-05-18 02:55:00
9:15 PM,46.4,41.0,81,30.06,10.0,North,8.1,-,N/A,,Clear,10,2013-05-18 03:15:00
9:35 PM,50.0,35.6,58,30.06,10.0,Calm,Calm,-,N/A,,Clear,0,2013-05-18 03:35:00
9:55 PM,50.0,35.6,58,30.06,10.0,Calm,Calm,-,N/A,,Clear,0,2013-05-18 03:55:00
10:35 PM,50.0,33.8,54,30.06,10.0,Calm,Calm,-,N/A,,Clear,0,2013-05-18 04:35:00
10:55 PM,50.0,33.8,54,30.06,10.0,WSW,4.6,-,N/A,,Clear,240,2013-05-18 04:55:00
11:15 PM,50.0,33.8,54,30.06,10.0,Calm,Calm,-,N/A,,Clear,0,2013-05-18 05:15:00
11:35 PM,50.0,33.8,54,30.05,10.0,South,3.5,-,N/A,,Clear,180,2013-05-18 05:35:00
11:55 PM,48.2,35.6,62,30.05,10.0,SSE,4.6,-,N/A,,Clear,150,2013-05-18 05:55:00